Location: Cheching
(60.0667°N, 164.2167°W)
Time: 11:51:54
(UTC+00:00)

FENGYUN 1C DEB - Pass Details

Date: 27 September 2021
Orbit: 727 x 819 km, 99.4° (Epoch: 17 October)

Event Time Altitude Azimuth Distance (km) Brightness Sun altitude
Exits shadow 11:30:32 30° 70° (ENE) 1,306 ? -31.2°
Maximum altitude 11:31:20 32° 52° (NE) 1,262 ? -31.2°
Drops below altitude 10° 11:35:42 10° 350° (N) 2,275 ? -31.0°
Sets 11:38:12 0° 341° (NNW) 3,216 ? -31.0°
